| time (UTC) | temp C | wind direction | speed KPH | gust KPH | rain 1hr cm | rain 24hr cm | rain mn cm | humidity % | barometer mb |
| 20260509190842 | 26 | 102 | 0.0 | 0.0 | 0.00 | 0.00 | 0.00 | 99 | 1008.6 |
| 20260509190339 | 26 | 102 | 0.0 | 0.0 | 0.00 | 0.00 | 0.00 | 99 | 1008.6 |
| 20260509185836 | 26 | 102 | 0.0 | 0.0 | 0.00 | 0.00 | 0.00 | 99 | 1008.8 |
| 20260509185332 | 26 | 101 | 0.0 | 0.0 | 0.00 | 0.00 | 0.00 | 99 | 1008.6 |
| 20260509184830 | 26 | 101 | 0.0 | 0.0 | 0.00 | 0.00 | 0.00 | 99 | 1008.5 |
| 20260509184327 | 26 | 101 | 0.0 | 0.0 | 0.00 | 0.00 | 0.00 | 99 | 1008.8 |
| 20260509183823 | 26 | 101 | 0.0 | 0.0 | 0.00 | 0.00 | 0.00 | 99 | 1008.7 |
| 20260509183319 | 26 | 101 | 0.0 | 0.0 | 0.00 | 0.00 | 0.00 | 99 | 1008.7 |
| 20260509182815 | 26 | 101 | 0.0 | 0.0 | 0.00 | 0.00 | 0.00 | 99 | 1008.9 |
| 20260509182312 | 26 | 101 | 0.0 | 0.0 | 0.00 | 0.00 | 0.00 | 99 | 1008.7 |
| 20260509181809 | 26 | 100 | 0.0 | 0.0 | 0.00 | 0.00 | 0.00 | 99 | 1008.9 |
| 20260509181307 | 26 | 101 | 0.0 | 0.0 | 0.00 | 0.00 | 0.00 | 99 | 1008.9 |
| 20260509180804 | 26 | 100 | 0.0 | 0.0 | 0.00 | 0.00 | 0.00 | 99 | 1009.1 |
| 20260509180300 | 26 | 100 | 0.0 | 0.0 | 0.00 | 0.00 | 0.00 | 99 | 1008.9 |
| 20260509175756 | 26 | 100 | 0.0 | 0.0 | 0.00 | 0.00 | 0.00 | 99 | 1009.1 |
| 20260509175253 | 26 | 99 | 0.0 | 0.0 | 0.00 | 0.00 | 0.00 | 99 | 1009.2 |
| 20260509174749 | 26 | 102 | 0.0 | 0.0 | 0.00 | 0.00 | 0.00 | 99 | 1009.1 |
| 20260509174244 | 26 | 98 | 0.0 | 0.0 | 0.00 | 0.00 | 0.00 | 99 | 1009.2 |
| 20260509173740 | 26 | 98 | 0.0 | 0.0 | 0.00 | 0.00 | 0.00 | 99 | 1009.2 |
| 20260509173236 | 26 | 98 | 0.0 | 0.0 | 0.00 | 0.00 | 0.00 | 99 | 1009.0 |
| 20260509172732 | 26 | 98 | 0.0 | 0.0 | 0.00 | 0.00 | 0.00 | 99 | 1009.2 |
| 20260509172229 | 26 | 96 | 0.0 | 0.0 | 0.00 | 0.00 | 0.00 | 99 | 1009.3 |
| 20260509171724 | 26 | 106 | 0.0 | 0.0 | 0.00 | 0.00 | 0.00 | 99 | 1009.4 |
| 20260509171221 | 27 | 108 | 0.0 | 1.6 | 0.00 | 0.00 | 0.00 | 99 | 1009.6 |
| 20260509170718 | 26 | 113 | 1.6 | 3.2 | 0.00 | 0.00 | 0.00 | 99 | 1009.5 |
| 20260509170214 | 26 | 64 | 1.6 | 1.6 | 0.00 | 0.00 | 0.00 | 99 | 1009.4 |
| 20260509165712 | 26 | 104 | 0.0 | 0.0 | 0.00 | 0.00 | 0.00 | 99 | 1009.5 |
| 20260509165208 | 26 | 111 | 0.0 | 1.6 | 0.00 | 0.00 | 0.00 | 99 | 1009.7 |
| 20260509164704 | 26 | 103 | 0.0 | 0.0 | 0.00 | 0.00 | 0.00 | 99 | 1009.5 |
| 20260509164200 | 26 | 102 | 0.0 | 0.0 | 0.00 | 0.00 | 0.00 | 99 | 1009.5 |
| 20260509163657 | 26 | 102 | 0.0 | 0.0 | 0.00 | 0.00 | 0.00 | 99 | 1009.5 |
| 20260509163154 | 26 | 102 | 0.0 | 0.0 | 0.00 | 0.00 | 0.00 | 99 | 1009.6 |
| 20260509162651 | 26 | 102 | 0.0 | 0.0 | 0.00 | 0.00 | 0.00 | 99 | 1009.7 |
| 20260509162147 | 26 | 102 | 0.0 | 0.0 | 0.00 | 0.00 | 0.00 | 99 | 1009.5 |
| 20260509161643 | 26 | 102 | 0.0 | 0.0 | 0.00 | 0.00 | 0.00 | 99 | 1009.5 |
| 20260509161138 | 26 | 102 | 0.0 | 0.0 | 0.00 | 0.00 | 0.00 | 99 | 1009.8 |
| 20260509160634 | 26 | 101 | 0.0 | 0.0 | 0.00 | 0.00 | 0.00 | 99 | 1009.6 |
| 20260509160130 | 26 | 116 | 1.6 | 3.2 | 0.00 | 0.00 | 0.00 | 99 | 1009.8 |
| 20260509155626 | 26 | 98 | 0.0 | 0.0 | 0.00 | 0.00 | 0.00 | 99 | 1009.7 |
| 20260509155122 | 26 | 98 | 0.0 | 0.0 | 0.00 | 0.00 | 0.00 | 99 | 1009.7 |
| 20260509154618 | 26 | 98 | 0.0 | 0.0 | 0.00 | 0.00 | 0.00 | 99 | 1009.9 |
| 20260509154115 | 27 | 96 | 0.0 | 0.0 | 0.00 | 0.00 | 0.00 | 99 | 1009.7 |
| 20260509153612 | 27 | 94 | 0.0 | 0.0 | 0.00 | 0.00 | 0.00 | 99 | 1009.8 |
| 20260509153109 | 27 | 95 | 0.0 | 0.0 | 0.00 | 0.00 | 0.00 | 99 | 1009.8 |
| 20260509152605 | 27 | 96 | 0.0 | 0.0 | 0.00 | 0.00 | 0.00 | 99 | 1009.8 |
| 20260509152103 | 27 | 91 | 0.0 | 0.0 | 0.00 | 0.00 | 0.00 | 99 | 1009.7 |
| 20260509151558 | 26 | 100 | 0.0 | 0.0 | 0.00 | 0.00 | 0.00 | 99 | 1009.8 |
| 20260509151057 | 26 | 100 | 0.0 | 0.0 | 0.00 | 0.00 | 0.00 | 99 | 1010.0 |
| 20260509150554 | 26 | 100 | 0.0 | 0.0 | 0.00 | 0.00 | 0.00 | 99 | 1009.6 |
| 20260509150053 | 27 | 99 | 0.0 | 0.0 | 0.00 | 0.00 | 0.00 | 99 | 1009.9 |
| 20260509145548 | 27 | 92 | 0.0 | 1.6 | 0.00 | 0.00 | 0.00 | 98 | 1009.6 |
| 20260509145043 | 27 | 94 | 0.0 | 0.0 | 0.00 | 0.00 | 0.00 | 98 | 1009.8 |
| 20260509144540 | 27 | 93 | 0.0 | 0.0 | 0.00 | 0.00 | 0.00 | 98 | 1009.6 |
| 20260509144037 | 27 | 100 | 0.0 | 0.0 | 0.00 | 0.00 | 0.00 | 99 | 1009.5 |
| 20260509143534 | 27 | 100 | 0.0 | 0.0 | 0.00 | 0.00 | 0.00 | 99 | 1009.6 |
| 20260509143032 | 27 | 100 | 0.0 | 0.0 | 0.00 | 0.00 | 0.00 | 98 | 1009.7 |
| 20260509142527 | 28 | 98 | 0.0 | 0.0 | 0.00 | 0.00 | 0.00 | 96 | 1009.5 |
| 20260509142023 | 28 | 104 | 0.0 | 0.0 | 0.00 | 0.00 | 0.00 | 95 | 1009.8 |
| 20260509141520 | 28 | 82 | 0.0 | 1.6 | 0.00 | 0.00 | 0.00 | 95 | 1009.5 |
| 20260509141017 | 28 | 86 | 0.0 | 0.0 | 0.00 | 0.00 | 0.00 | 96 | 1009.4 |
| 20260509140513 | 28 | 104 | 0.0 | 0.0 | 0.00 | 0.00 | 0.00 | 95 | 1009.3 |
| 20260509140012 | 28 | 100 | 0.0 | 0.0 | 0.00 | 0.00 | 0.00 | 94 | 1009.4 |
| 20260509135508 | 28 | 88 | 0.0 | 0.0 | 0.00 | 0.00 | 0.00 | 94 | 1009.4 |
| 20260509135006 | 28 | 89 | 0.0 | 0.0 | 0.00 | 0.00 | 0.00 | 94 | 1009.5 |
| 20260509134503 | 28 | 88 | 0.0 | 1.6 | 0.00 | 0.00 | 0.00 | 94 | 1009.1 |
| 20260509134001 | 28 | 92 | 0.0 | 0.0 | 0.00 | 0.00 | 0.00 | 95 | 1009.3 |
| 20260509133457 | 28 | 94 | 0.0 | 1.6 | 0.00 | 0.00 | 0.00 | 95 | 1009.2 |
| 20260509132954 | 28 | 98 | 0.0 | 0.0 | 0.00 | 0.00 | 0.00 | 95 | 1009.4 |
| 20260509132453 | 28 | 102 | 0.0 | 0.0 | 0.00 | 0.00 | 0.00 | 94 | 1009.1 |
| 20260509131950 | 28 | 93 | 0.0 | 0.0 | 0.00 | 0.00 | 0.00 | 94 | 1009.2 |
| 20260509131447 | 28 | 102 | 0.0 | 0.0 | 0.00 | 0.00 | 0.00 | 94 | 1009.0 |
| 20260509130943 | 28 | 92 | 0.0 | 0.0 | 0.00 | 0.00 | 0.00 | 94 | 1009.2 |
| 20260509130438 | 28 | 91 | 0.0 | 0.0 | 0.00 | 0.00 | 0.00 | 95 | 1009.1 |
| 20260509125936 | 28 | 93 | 0.0 | 0.0 | 0.00 | 0.00 | 0.00 | 95 | 1009.2 |
| 20260509125432 | 28 | 89 | 0.0 | 0.0 | 0.00 | 0.00 | 0.00 | 94 | 1009.0 |
| 20260509124928 | 28 | 99 | 0.0 | 0.0 | 0.00 | 0.00 | 0.00 | 95 | 1009.3 |
| 20260509124426 | 28 | 99 | 0.0 | 0.0 | 0.00 | 0.00 | 0.00 | 95 | 1009.2 |
| 20260509123923 | 28 | 98 | 0.0 | 0.0 | 0.00 | 0.00 | 0.00 | 94 | 1009.0 |
| 20260509123420 | 28 | 98 | 0.0 | 0.0 | 0.00 | 0.00 | 0.00 | 93 | 1009.2 |
| 20260509122916 | 29 | 98 | 0.0 | 0.0 | 0.00 | 0.00 | 0.00 | 92 | 1009.2 |
| 20260509122413 | 29 | 76 | 0.0 | 1.6 | 0.00 | 0.00 | 0.00 | 90 | 1009.1 |
| 20260509121910 | 29 | 98 | 0.0 | 0.0 | 0.00 | 0.00 | 0.00 | 92 | 1008.9 |
| 20260509121407 | 29 | 101 | 0.0 | 0.0 | 0.00 | 0.00 | 0.00 | 91 | 1008.9 |
| 20260509120905 | 30 | 94 | 0.0 | 0.0 | 0.00 | 0.00 | 0.00 | 90 | 1009.0 |
| 20260509120402 | 30 | 91 | 0.0 | 1.6 | 0.00 | 0.00 | 0.00 | 90 | 1009.0 |
| 20260509115900 | 30 | 75 | 0.0 | 1.6 | 0.00 | 0.00 | 0.00 | 90 | 1008.9 |
| 20260509115357 | 29 | 94 | 0.0 | 0.0 | 0.00 | 0.00 | 0.00 | 91 | 1008.7 |
| 20260509114855 | 29 | 91 | 0.0 | 0.0 | 0.00 | 0.00 | 0.00 | 92 | 1008.7 |
| 20260509114353 | 29 | 81 | 1.6 | 1.6 | 0.00 | 0.00 | 0.00 | 91 | 1008.9 |
| 20260509113852 | 29 | 91 | 0.0 | 0.0 | 0.00 | 0.00 | 0.00 | 91 | 1008.6 |
| 20260509113349 | 29 | 94 | 0.0 | 0.0 | 0.00 | 0.00 | 0.00 | 91 | 1008.5 |
| 20260509112846 | 29 | 84 | 0.0 | 1.6 | 0.00 | 0.00 | 0.00 | 90 | 1008.5 |
| 20260509112343 | 29 | 91 | 0.0 | 1.6 | 0.00 | 0.00 | 0.00 | 90 | 1008.5 |
| 20260509111840 | 29 | 81 | 0.0 | 3.2 | 0.00 | 0.00 | 0.00 | 89 | 1008.7 |
| 20260509111337 | 30 | 57 | 1.6 | 3.2 | 0.00 | 0.00 | 0.00 | 89 | 1008.3 |
| 20260509110835 | 30 | 76 | 1.6 | 3.2 | 0.00 | 0.00 | 0.00 | 88 | 1008.3 |
| 20260509110331 | 30 | 35 | 6.4 | 8.0 | 0.00 | 0.00 | 0.00 | 87 | 1008.4 |
| 20260509105829 | 30 | 72 | 1.6 | 3.2 | 0.00 | 0.00 | 0.00 | 87 | 1008.1 |
| 20260509105327 | 30 | 63 | 1.6 | 4.8 | 0.00 | 0.00 | 0.00 | 87 | 1008.2 |
| 20260509104823 | 30 | 27 | 3.2 | 8.0 | 0.00 | 0.00 | 0.00 | 87 | 1008.0 |
| 20260509104320 | 30 | 73 | 1.6 | 1.6 | 0.00 | 0.00 | 0.00 | 86 | 1008.2 |
| 20260509103818 | 30 | 88 | 1.6 | 9.7 | 0.00 | 0.00 | 0.00 | 86 | 1008.5 |
| 20260509103315 | 30 | 50 | 0.0 | 3.2 | 0.00 | 0.00 | 0.00 | 84 | 1008.2 |
| 20260509102813 | 30 | 100 | 0.0 | 3.2 | 0.00 | 0.00 | 0.00 | 85 | 1007.9 |
| 20260509102310 | 30 | 95 | 4.8 | 4.8 | 0.00 | 0.00 | 0.00 | 85 | 1007.7 |
| 20260509101806 | 30 | 111 | 0.0 | 3.2 | 0.00 | 0.00 | 0.00 | 85 | 1007.6 |
| 20260509101303 | 31 | 45 | 6.4 | 11.3 | 0.00 | 0.00 | 0.00 | 84 | 1007.5 |
| 20260509100800 | 31 | 97 | 3.2 | 9.7 | 0.00 | 0.00 | 0.00 | 84 | 1007.4 |
| 20260509100257 | 31 | 145 | 6.4 | 11.3 | 0.00 | 0.00 | 0.00 | 84 | 1007.4 |
| 20260509095754 | 31 | 130 | 0.0 | 4.8 | 0.00 | 0.00 | 0.00 | 83 | 1007.1 |
| 20260509095251 | 31 | 94 | 0.0 | 4.8 | 0.00 | 0.00 | 0.00 | 83 | 1007.2 |
| 20260509094748 | 30 | 60 | 6.4 | 9.7 | 0.00 | 0.00 | 0.00 | 85 | 1007.4 |
| 20260509094245 | 30 | 12 | 1.6 | 4.8 | 0.00 | 0.00 | 0.00 | 84 | 1007.4 |
| 20260509093743 | 30 | 130 | 3.2 | 4.8 | 0.00 | 0.00 | 0.00 | 86 | 1007.4 |
| 20260509093240 | 31 | 96 | 1.6 | 4.8 | 0.00 | 0.00 | 0.00 | 86 | 1007.4 |
| 20260509092738 | 31 | 344 | 8.0 | 12.9 | 0.00 | 0.00 | 0.00 | 85 | 1007.3 |
| 20260509092236 | 31 | 77 | 1.6 | 9.7 | 0.00 | 0.00 | 0.00 | 85 | 1007.5 |
| 20260509091733 | 31 | 59 | 9.7 | 12.9 | 0.00 | 0.00 | 0.00 | 85 | 1007.3 |
| 20260509091229 | 31 | 104 | 8.0 | 14.5 | 0.00 | 0.00 | 0.00 | 84 | 1007.3 |
| 20260509090727 | 31 | 104 | 1.6 | 8.0 | 0.00 | 0.00 | 0.00 | 85 | 1007.5 |
| 20260509090224 | 31 | 72 | 4.8 | 12.9 | 0.00 | 0.00 | 0.00 | 86 | 1007.6 |
| 20260509085722 | 30 | 124 | 6.4 | 9.7 | 0.00 | 0.00 | 0.00 | 87 | 1007.5 |
| 20260509085219 | 31 | 135 | 3.2 | 4.8 | 0.00 | 0.00 | 0.00 | 86 | 1007.3 |
| 20260509084715 | 31 | 84 | 4.8 | 11.3 | 0.00 | 0.00 | 0.00 | 86 | 1007.6 |
| 20260509084212 | 30 | 34 | 6.4 | 8.0 | 0.00 | 0.00 | 0.00 | 87 | 1007.4 |
| 20260509083710 | 30 | 64 | 3.2 | 3.2 | 0.00 | 0.00 | 0.00 | 89 | 1007.5 |
| 20260509083207 | 30 | 50 | 8.0 | 11.3 | 0.00 | 0.00 | 0.00 | 90 | 1007.6 |
| 20260509082703 | 30 | 101 | 4.8 | 8.0 | 0.00 | 0.00 | 0.00 | 89 | 1007.8 |
| 20260509082200 | 30 | 102 | 1.6 | 8.0 | 0.00 | 0.00 | 0.00 | 89 | 1007.8 |
| 20260509081657 | 30 | 23 | 8.0 | 11.3 | 0.00 | 0.00 | 0.00 | 89 | 1007.8 |
| 20260509081154 | 30 | 55 | 3.2 | 9.7 | 0.00 | 0.00 | 0.00 | 88 | 1007.5 |
| 20260509080652 | 30 | 70 | 4.8 | 16.1 | 0.00 | 0.00 | 0.00 | 88 | 1007.7 |
| 20260509080150 | 30 | 46 | 4.8 | 9.7 | 0.00 | 0.00 | 0.00 | 88 | 1007.6 |
| 20260509075648 | 30 | 181 | 3.2 | 8.0 | 0.00 | 0.00 | 0.00 | 87 | 1007.7 |
| 20260509075145 | 30 | 55 | 6.4 | 12.9 | 0.00 | 0.00 | 0.00 | 86 | 1007.9 |
| 20260509074642 | 31 | 110 | 1.6 | 12.9 | 0.00 | 0.00 | 0.00 | 85 | 1008.1 |
| 20260509074138 | 31 | 34 | 4.8 | 11.3 | 0.00 | 0.00 | 0.00 | 85 | 1008.3 |
| 20260509073636 | 31 | 119 | 6.4 | 11.3 | 0.00 | 0.00 | 0.00 | 84 | 1008.2 |
| 20260509073131 | 32 | 83 | 6.4 | 11.3 | 0.00 | 0.00 | 0.00 | 82 | 1008.0 |
| 20260509072629 | 31 | 118 | 3.2 | 9.7 | 0.00 | 0.00 | 0.00 | 83 | 1008.1 |
| 20260509072125 | 31 | 121 | 3.2 | 11.3 | 0.00 | 0.00 | 0.00 | 86 | 1008.4 |
| 20260509071622 | 31 | 151 | 4.8 | 9.7 | 0.00 | 0.00 | 0.00 | 84 | 1008.3 |
| 20260509071119 | 31 | 99 | 4.8 | 9.7 | 0.00 | 0.00 | 0.00 | 84 | 1008.1 |
| 20260509070616 | 31 | 101 | 9.7 | 11.3 | 0.00 | 0.00 | 0.00 | 83 | 1008.5 |
| 20260509070112 | 31 | 58 | 6.4 | 9.7 | 0.00 | 0.00 | 0.00 | 85 | 1008.8 |
| 20260509065608 | 31 | 80 | 3.2 | 8.0 | 0.00 | 0.00 | 0.00 | 86 | 1008.8 |
| 20260509065104 | 30 | 76 | 4.8 | 11.3 | 0.00 | 0.00 | 0.00 | 85 | 1008.9 |
| 20260509064602 | 31 | 99 | 3.2 | 9.7 | 0.00 | 0.00 | 0.00 | 87 | 1009.4 |
| 20260509064100 | 31 | 128 | 1.6 | 9.7 | 0.00 | 0.00 | 0.00 | 86 | 1009.3 |
| 20260509063556 | 31 | 73 | 4.8 | 4.8 | 0.00 | 0.00 | 0.00 | 85 | 1009.2 |
| 20260509063053 | 31 | 57 | 4.8 | 14.5 | 0.00 | 0.00 | 0.00 | 84 | 1009.3 |
| 20260509062550 | 31 | 62 | 6.4 | 12.9 | 0.00 | 0.00 | 0.00 | 83 | 1009.3 |
| 20260509062048 | 31 | 66 | 4.8 | 8.0 | 0.00 | 0.00 | 0.00 | 85 | 1009.8 |
| 20260509061544 | 31 | 51 | 4.8 | 9.7 | 0.00 | 0.00 | 0.00 | 87 | 1009.6 |
| 20260509061042 | 31 | 122 | 4.8 | 8.0 | 0.00 | 0.00 | 0.00 | 86 | 1009.6 |
| 20260509060539 | 31 | 76 | 6.4 | 12.9 | 0.00 | 0.00 | 0.00 | 85 | 1009.7 |
| 20260509060035 | 30 | 107 | 6.4 | 9.7 | 0.00 | 0.00 | 0.00 | 87 | 1009.9 |
| 20260509055530 | 30 | 130 | 6.4 | 11.3 | 0.00 | 0.00 | 0.00 | 88 | 1010.1 |
| 20260509055026 | 30 | 156 | 4.8 | 9.7 | 0.00 | 0.00 | 0.00 | 88 | 1009.9 |
| 20260509054523 | 31 | 185 | 6.4 | 9.7 | 0.00 | 0.00 | 0.00 | 85 | 1010.0 |
| 20260509054021 | 30 | 75 | 8.0 | 11.3 | 0.00 | 0.00 | 0.00 | 86 | 1010.4 |
| 20260509053520 | 31 | 11 | 8.0 | 14.5 | 0.00 | 0.00 | 0.00 | 83 | 1010.2 |
| 20260509053016 | 31 | 91 | 9.7 | 16.1 | 0.00 | 0.00 | 0.00 | 82 | 1010.2 |
| 20260509052514 | 31 | 34 | 6.4 | 9.7 | 0.00 | 0.00 | 0.00 | 81 | 1010.5 |
| 20260509052012 | 31 | 175 | 4.8 | 11.3 | 0.00 | 0.00 | 0.00 | 83 | 1010.2 |
| 20260509051509 | 31 | 122 | 4.8 | 8.0 | 0.00 | 0.00 | 0.00 | 82 | 1010.5 |
| 20260509051006 | 31 | 98 | 3.2 | 9.7 | 0.00 | 0.00 | 0.00 | 81 | 1010.5 |
| 20260509050503 | 31 | 105 | 3.2 | 8.0 | 0.00 | 0.00 | 0.00 | 82 | 1010.3 |
| 20260509045959 | 31 | 142 | 3.2 | 8.0 | 0.00 | 0.00 | 0.00 | 82 | 1010.5 |
| 20260509045457 | 32 | 18 | 6.4 | 9.7 | 0.00 | 0.00 | 0.00 | 80 | 1010.5 |
| 20260509044954 | 32 | 88 | 6.4 | 9.7 | 0.00 | 0.00 | 0.00 | 80 | 1010.5 |
| 20260509044451 | 32 | 323 | 4.8 | 11.3 | 0.00 | 0.00 | 0.00 | 81 | 1010.7 |
| 20260509043948 | 31 | 45 | 4.8 | 9.7 | 0.00 | 0.00 | 0.00 | 83 | 1010.6 |
| 20260509043444 | 32 | 71 | 8.0 | 11.3 | 0.00 | 0.00 | 0.00 | 82 | 1010.7 |
| 20260509042939 | 31 | 21 | 3.2 | 4.8 | 0.00 | 0.00 | 0.00 | 83 | 1010.9 |
| 20260509042437 | 31 | 59 | 1.6 | 8.0 | 0.00 | 0.00 | 0.00 | 85 | 1011.0 |
| 20260509041933 | 31 | 134 | 3.2 | 8.0 | 0.00 | 0.00 | 0.00 | 84 | 1011.1 |
| 20260509041430 | 32 | 128 | 4.8 | 8.0 | 0.00 | 0.00 | 0.00 | 82 | 1011.2 |
| 20260509040928 | 31 | 42 | 1.6 | 1.6 | 0.00 | 0.00 | 0.00 | 80 | 1011.1 |
| 20260509040426 | 31 | 94 | 3.2 | 3.2 | 0.00 | 0.00 | 0.00 | 82 | 1011.0 |
| 20260509035922 | 31 | 49 | 3.2 | 8.0 | 0.00 | 0.00 | 0.00 | 83 | 1011.1 |
| 20260509035419 | 31 | 29 | 3.2 | 8.0 | 0.00 | 0.00 | 0.00 | 83 | 1011.1 |
| 20260509034915 | 31 | 89 | 0.0 | 4.8 | 0.00 | 0.00 | 0.00 | 82 | 1011.1 |
| 20260509034414 | 31 | 150 | 3.2 | 8.0 | 0.00 | 0.00 | 0.00 | 81 | 1011.3 |
| 20260509033910 | 32 | 83 | 1.6 | 8.0 | 0.00 | 0.00 | 0.00 | 80 | 1011.3 |
| 20260509033407 | 31 | 74 | 3.2 | 3.2 | 0.00 | 0.00 | 0.00 | 82 | 1011.2 |
| 20260509032904 | 31 | 330 | 6.4 | 9.7 | 0.00 | 0.00 | 0.00 | 83 | 1011.1 |
| 20260509032401 | 30 | 315 | 4.8 | 8.0 | 0.00 | 0.00 | 0.00 | 84 | 1011.2 |
| 20260509031859 | 31 | 358 | 3.2 | 4.8 | 0.00 | 0.00 | 0.00 | 84 | 1011.4 |
| 20260509031356 | 31 | 78 | 1.6 | 8.0 | 0.00 | 0.00 | 0.00 | 84 | 1011.5 |
| 20260509030854 | 31 | 18 | 3.2 | 4.8 | 0.00 | 0.00 | 0.00 | 83 | 1011.4 |
| 20260509030352 | 31 | 44 | 3.2 | 8.0 | 0.00 | 0.00 | 0.00 | 84 | 1011.4 |
| 20260509025849 | 31 | 84 | 3.2 | 4.8 | 0.00 | 0.00 | 0.00 | 85 | 1011.5 |
| 20260509025343 | 30 | 77 | 0.0 | 3.2 | 0.00 | 0.00 | 0.00 | 85 | 1011.4 |
| 20260509024839 | 30 | 214 | 4.8 | 4.8 | 0.00 | 0.00 | 0.00 | 85 | 1011.6 |
| 20260509024336 | 30 | 299 | 4.8 | 4.8 | 0.00 | 0.00 | 0.00 | 86 | 1011.5 |
| 20260509023833 | 30 | 255 | 3.2 | 4.8 | 0.00 | 0.00 | 0.00 | 89 | 1011.4 |
| 20260509023330 | 29 | 162 | 3.2 | 4.8 | 0.00 | 0.00 | 0.00 | 89 | 1011.3 |
| 20260509022827 | 29 | 54 | 3.2 | 8.0 | 0.00 | 0.00 | 0.00 | 90 | 1011.4 |
| 20260509022324 | 28 | 235 | 1.6 | 4.8 | 0.00 | 0.00 | 0.00 | 90 | 1011.6 |
| 20260509021821 | 29 | 307 | 4.8 | 8.0 | 0.00 | 0.00 | 0.00 | 90 | 1011.6 |
| 20260509021318 | 28 | 286 | 4.8 | 4.8 | 0.00 | 0.00 | 0.00 | 91 | 1011.5 |
| 20260509020815 | 28 | 357 | 6.4 | 8.0 | 0.00 | 0.00 | 0.00 | 91 | 1011.6 |
| 20260509020314 | 28 | 99 | 1.6 | 3.2 | 0.00 | 0.00 | 0.00 | 92 | 1011.6 |
| 20260509015811 | 28 | 322 | 4.8 | 4.8 | 0.00 | 0.00 | 0.00 | 92 | 1011.8 |
| 20260509015309 | 28 | 354 | 3.2 | 8.0 | 0.00 | 0.00 | 0.00 | 93 | 1011.7 |
| 20260509014805 | 28 | 25 | 3.2 | 8.0 | 0.00 | 0.00 | 0.00 | 94 | 1011.9 |
| 20260509014302 | 28 | 320 | 4.8 | 8.0 | 0.00 | 0.00 | 0.00 | 94 | 1011.8 |
| 20260509013758 | 27 | 7 | 1.6 | 3.2 | 0.00 | 0.00 | 0.00 | 95 | 1011.7 |
| 20260509013254 | 27 | 26 | 1.6 | 8.0 | 0.00 | 0.00 | 0.00 | 96 | 1011.7 |
| 20260509012751 | 27 | 43 | 3.2 | 4.8 | 0.00 | 0.00 | 0.00 | 96 | 1011.7 |
| 20260509012248 | 26 | 347 | 4.8 | 4.8 | 0.00 | 0.00 | 0.00 | 97 | 1011.8 |
| 20260509011745 | 26 | 343 | 3.2 | 8.0 | 0.00 | 0.00 | 0.00 | 98 | 1011.6 |
| 20260509011243 | 26 | 89 | 0.0 | 3.2 | 0.00 | 0.00 | 0.00 | 98 | 1011.4 |
| 20260509010740 | 26 | 90 | 3.2 | 4.8 | 0.00 | 0.00 | 0.00 | 98 | 1011.5 |
| 20260509010237 | 26 | 28 | 3.2 | 3.2 | 0.00 | 0.00 | 0.00 | 99 | 1011.4 |
| 20260509005734 | 26 | 97 | 0.0 | 1.6 | 0.00 | 0.00 | 0.00 | 99 | 1011.5 |
| 20260509005231 | 26 | 87 | 0.0 | 1.6 | 0.00 | 0.00 | 0.00 | 99 | 1011.6 |
| 20260509004725 | 26 | 92 | 0.0 | 3.2 | 0.00 | 0.00 | 0.00 | 99 | 1011.4 |
| 20260509004223 | 26 | 73 | 1.6 | 1.6 | 0.00 | 0.00 | 0.00 | 99 | 1011.3 |
| 20260509003721 | 26 | 92 | 0.0 | 0.0 | 0.00 | 0.00 | 0.00 | 99 | 1011.4 |
| 20260509003219 | 26 | 99 | 0.0 | 1.6 | 0.00 | 0.00 | 0.00 | 99 | 1011.4 |
| 20260509002716 | 26 | 92 | 0.0 | 1.6 | 0.00 | 0.00 | 0.00 | 99 | 1011.2 |
| 20260509002213 | 25 | 43 | 1.6 | 3.2 | 0.00 | 0.00 | 0.00 | 99 | 1011.1 |
| 20260509001711 | 25 | 83 | 1.6 | 3.2 | 0.00 | 0.00 | 0.00 | 99 | 1011.1 |
| 20260509001206 | 25 | 102 | 0.0 | 0.0 | 0.00 | 0.00 | 0.00 | 99 | 1010.9 |
| 20260509000705 | 25 | 266 | 3.2 | 4.8 | 0.00 | 0.00 | 0.00 | 99 | 1010.6 |
| 20260509000204 | 25 | 117 | 0.0 | 0.0 | 0.00 | 0.00 | 0.00 | 99 | 1011.0 |
| 20260508235659 | 25 | 105 | 0.0 | 3.2 | 0.00 | 0.00 | 0.00 | 99 | 1010.9 |
| 20260508235155 | 25 | 94 | 0.0 | 3.2 | 0.00 | 0.00 | 0.00 | 99 | 1010.5 |
| 20260508234653 | 25 | 146 | 1.6 | 4.8 | 0.00 | 0.00 | 0.00 | 99 | 1010.8 |
| 20260508234149 | 25 | 89 | 0.0 | 1.6 | 0.00 | 0.00 | 0.00 | 99 | 1010.8 |
| 20260508233648 | 25 | 55 | 1.6 | 3.2 | 0.00 | 0.00 | 0.00 | 99 | 1010.5 |
| 20260508233145 | 25 | 62 | 1.6 | 3.2 | 0.00 | 0.00 | 0.00 | 99 | 1010.5 |
| 20260508232643 | 25 | 269 | 4.8 | 8.0 | 0.00 | 0.00 | 0.00 | 99 | 1010.3 |
| 20260508232139 | 25 | 108 | 0.0 | 3.2 | 0.00 | 0.00 | 0.00 | 99 | 1010.5 |
| 20260508231637 | 25 | 34 | 0.0 | 1.6 | 0.00 | 0.00 | 0.00 | 99 | 1010.4 |
| 20260508231133 | 25 | 83 | 1.6 | 3.2 | 0.00 | 0.00 | 0.00 | 99 | 1010.0 |
| 20260508230630 | 25 | 297 | 3.2 | 4.8 | 0.00 | 0.00 | 0.00 | 99 | 1010.1 |
| 20260508230126 | 25 | 87 | 1.6 | 1.6 | 0.00 | 0.00 | 0.00 | 99 | 1010.2 |
| 20260508225625 | 25 | 100 | 0.0 | 1.6 | 0.00 | 0.00 | 0.00 | 99 | 1010.1 |
| 20260508225121 | 25 | 238 | 3.2 | 4.8 | 0.00 | 0.00 | 0.00 | 99 | 1010.0 |
| 20260508224619 | 25 | 119 | 0.0 | 1.6 | 0.00 | 0.00 | 0.00 | 99 | 1009.8 |
| 20260508224116 | 25 | 98 | 1.6 | 8.0 | 0.00 | 0.00 | 0.00 | 99 | 1009.8 |
| 20260508223614 | 25 | 110 | 0.0 | 0.0 | 0.00 | 0.00 | 0.00 | 99 | 1009.5 |
| 20260508223111 | 25 | 82 | 0.0 | 1.6 | 0.00 | 0.00 | 0.00 | 99 | 1009.5 |
| 20260508222608 | 25 | 86 | 0.0 | 1.6 | 0.00 | 0.00 | 0.00 | 99 | 1009.5 |
| 20260508222105 | 25 | 96 | 0.0 | 0.0 | 0.00 | 0.00 | 0.00 | 99 | 1009.4 |
| 20260508221601 | 25 | 97 | 0.0 | 1.6 | 0.00 | 0.00 | 0.00 | 99 | 1009.2 |
| 20260508221057 | 25 | 82 | 0.0 | 4.8 | 0.00 | 0.00 | 0.00 | 99 | 1009.3 |
| 20260508220554 | 25 | 82 | 1.6 | 1.6 | 0.00 | 0.00 | 0.00 | 99 | 1009.0 |
| 20260508220050 | 25 | 45 | 1.6 | 8.0 | 0.00 | 0.00 | 0.00 | 99 | 1009.1 |
| 20260508215547 | 25 | 48 | 1.6 | 3.2 | 0.00 | 0.00 | 0.00 | 99 | 1008.9 |
| 20260508215044 | 25 | 24 | 4.8 | 4.8 | 0.00 | 0.00 | 0.00 | 99 | 1008.9 |
| 20260508214541 | 25 | 47 | 1.6 | 4.8 | 0.00 | 0.00 | 0.00 | 99 | 1008.7 |
| 20260508214037 | 25 | 357 | 1.6 | 4.8 | 0.00 | 0.00 | 0.00 | 99 | 1008.7 |
| 20260508213535 | 25 | 295 | 6.4 | 9.7 | 0.00 | 0.00 | 0.00 | 99 | 1008.6 |
| 20260508213030 | 25 | 268 | 4.8 | 8.0 | 0.00 | 0.00 | 0.00 | 99 | 1008.5 |
| 20260508212528 | 25 | 194 | 4.8 | 4.8 | 0.00 | 0.00 | 0.00 | 99 | 1008.7 |
| 20260508212024 | 25 | 13 | 3.2 | 8.0 | 0.00 | 0.00 | 0.00 | 99 | 1008.6 |
| 20260508211519 | 25 | 6 | 1.6 | 3.2 | 0.00 | 0.00 | 0.00 | 99 | 1008.5 |
| 20260508211016 | 25 | 30 | 1.6 | 4.8 | 0.00 | 0.00 | 0.00 | 99 | 1008.8 |
| 20260508210512 | 25 | 120 | 3.2 | 4.8 | 0.00 | 0.00 | 0.00 | 99 | 1008.6 |
| 20260508210010 | 25 | 144 | 1.6 | 1.6 | 0.00 | 0.00 | 0.00 | 99 | 1008.5 |
| 20260508205507 | 25 | 304 | 4.8 | 4.8 | 0.00 | 0.00 | 0.00 | 99 | 1008.7 |
| 20260508205003 | 25 | 250 | 4.8 | 4.8 | 0.00 | 0.00 | 0.00 | 99 | 1008.5 |
| 20260508204500 | 25 | 259 | 3.2 | 3.2 | 0.00 | 0.00 | 0.00 | 99 | 1008.8 |
| 20260508203955 | 25 | 219 | 3.2 | 3.2 | 0.00 | 0.00 | 0.00 | 99 | 1008.5 |
| 20260508203452 | 25 | 303 | 4.8 | 8.0 | 0.00 | 0.00 | 0.00 | 99 | 1008.6 |
| 20260508202947 | 25 | 298 | 3.2 | 3.2 | 0.00 | 0.00 | 0.00 | 99 | 1008.8 |
| 20260508202445 | 25 | 65 | 0.0 | 1.6 | 0.00 | 0.00 | 0.00 | 99 | 1008.5 |
| 20260508201942 | 25 | 30 | 0.0 | 3.2 | 0.00 | 0.00 | 0.00 | 99 | 1008.7 |
| 20260508201438 | 25 | 146 | 1.6 | 3.2 | 0.00 | 0.00 | 0.00 | 99 | 1008.5 |
| 20260508200935 | 25 | 84 | 0.0 | 3.2 | 0.00 | 0.00 | 0.00 | 99 | 1008.7 |
| 20260508200433 | 25 | 76 | 0.0 | 3.2 | 0.00 | 0.00 | 0.00 | 99 | 1008.7 |
| 20260508195927 | 25 | 98 | 0.0 | 1.6 | 0.00 | 0.00 | 0.00 | 99 | 1008.6 |
| 20260508195425 | 25 | 102 | 0.0 | 8.0 | 0.00 | 0.00 | 0.00 | 99 | 1008.8 |
| 20260508194920 | 25 | 104 | 0.0 | 3.2 | 0.00 | 0.00 | 0.00 | 99 | 1008.6 |
| 20260508194418 | 25 | 112 | 0.0 | 3.2 | 0.00 | 0.00 | 0.00 | 99 | 1008.9 |
| 20260508193915 | 25 | 274 | 3.2 | 4.8 | 0.00 | 0.00 | 0.00 | 99 | 1008.7 |
| 20260508193412 | 25 | 281 | 3.2 | 4.8 | 0.00 | 0.00 | 0.00 | 99 | 1009.0 |
| 20260508192908 | 25 | 160 | 1.6 | 3.2 | 0.00 | 0.00 | 0.00 | 99 | 1009.1 |
| 20260508192405 | 25 | 123 | 0.0 | 3.2 | 0.00 | 0.00 | 0.00 | 99 | 1009.0 |
| 20260508191902 | 25 | 109 | 1.6 | 3.2 | 0.00 | 0.00 | 0.00 | 99 | 1008.9 |
| 20260508191359 | 25 | 118 | 1.6 | 4.8 | 0.00 | 0.00 | 0.00 | 99 | 1009.1 |